BREEZE-M DEB (TANK), 38344

Orbit data source: Space-Track

BREEZE-M DEB (TANK), 38344 is space debris in HEO originally from a launch on Thu, 17 May 2012 UTC launched from the Tyuratam Missile And Space Complex (TTMTR). Debris objects in space refer to the collection of defunct objects orbiting the Earth. Examples of debris include non-operational satellites, rocket bodies, and fragments generated from explosions, collisions, or faulty payload assembly.

Loading next visibility...
Identifier
38344, 2012-026C
Orbit
HEO
Last TLE update
23 hours ago
Origin
Manufacturer
Khrunichev
Mission
Spacecraft
Bus & Motor
BRIZ TANK, Unknown motor
Mass
~1,000 kg wet, 1,000 kg dry
Launch date (UTC)
2012-05-17 (13 years ago)
Launch vehicle
Unknown
Launch site
Tyuratam Missile And Space Complex (TTMTR)
Object type
Payload
Rocket body
Debris
Shape & HBR
Torus, 2.6 m
Radar Cross Section
5.040 m², Large (>1 m²)

Expand to show TLE details & history

TLE from 23 hours ago
0 BREEZE-M DEB (TANK)
1 38344U 12026C   25183.58547277  .00014847  00000-0  13200-2 0  9999
2 38344  49.0797 123.6880 6257499 106.9451 326.8898  3.69735273168516
Epoch: 2025-07-02T14:03Z
TLE epoch observation values (Epoch: 2025-07-02T14:03:04.847Z)
Latitude
-0.00005°
Longitude
-7.96579°
Altitude
6,762.316 km
Speed
6.173 km/s
True Right ascension
08h 14m 40s
True Declination
0° 00' 00"
Sunlit
Object was in daylight at epoch
Visualization orbit readout
Latitude
-45.65602°
Longitude
-70.78233°
Altitude
22,339.317 km
Speed
2.281 km/s
Apparent Right ascension
04h 48m 39s
Apparent Declination
-55° 41' 24"
Sunlit
Object is in daylight
Visualization observer readout
Local Sidereal Time
01:14:35
Azimuth
151.894° SSE
Elevation
-15.841°
Doppler factor
1
Orbital elements
Apogee altitude
22,343.804 km
Perigee altitude
233.698 km
Semi-major axis
17,666.888 km
Eccentricity
0.62575
Inclination
49.0797°
RAAN
123.688°
Arg. of periapsis
106.9451°
True anomaly
Unknown
Mean anomaly
326.8898°
Eccentric anomaly
Unknown
Mean motion
0.92428 °/min
Orbital period
389.49 mins
BSTAR
0.00132
Loading maneuver chart data...
Loading SW <> Apogee altitude chart data...
Loading historical data...
Loading historical data...
Loading historical data...
Loading historical data...
Loading historical data...
Loading historical data...
Loading historical data...

BREEZE-M DEB (TANK) Visibility forecast

Observer location: undefined°, undefined°

Span
Click to sort rows by Start time (UTC) header in descending order
Start Az.
Max El. time (UTC)
Max El. Az.
Max El.
End time (UTC)
End Az.
31 mins2025-07-03 22:26:45.364Z223.685° SW2025-07-03 22:53:45.364Z156.071° SSE43.392°2025-07-03 22:57:45.364Z66.662° ENE
4 mins2025-07-04 05:38:45.364Z248.52° W2025-07-04 05:38:45.364Z248.52° W35.323°2025-07-04 05:42:45.364Z134.621° SE
|